Tracking 29967 objects as of 5-Dec-2024
HD Live streaming from Space Station
objects crossing your sky now

STARLINK-11271

Track STARLINK-11271 now!
10-day predictions
STARLINK-11271 is classified as:


NORAD ID: 60915
Int'l Code: 2024-154N
Perigee: 366.2 km
Apogee: 367.5 km
Inclination: 53.2 °
Period: 91.7 minutes
Semi major axis: 6737 km
RCS: Unknown
Launch date: August 31, 2024
Source: United States (US)
Launch site: AIR FORCE EASTERN TEST RANGE (AFETR)
Your satellite tracking list
Your tracking list is empty




NASA's NSSDC Master Catalog

Two Line Element Set (TLE):
1 60915U 24154N   24340.42066195  .00000251  00000-0  69246-5 0  9993
2 60915  53.1595 235.0956 0000957  86.1832 273.9295 15.69711589 16376
Source of the keplerian elements: AFSPC